Date String (YYYY-MM-DD hh:mm:ss) UTC,Instrument flags,absolute air pressure of the measurement (hPa),sample flow rate (lpm),inlet stack bypass flow (lpm),air temperature of the measurement (°C),ambient temperature measured by the external sensor (°C),aerosol sample conditioner tube jacket temperature (°C),OPC LED temperature (°C),internal box temperature (°C),relative humidity of the measurement (%),span deviation,mass concentration of particles derived from Lorenz-Mie calculation of OPC scattering (μg/m³),mass concentration of particles derived from Lorenz-Mie calculation of OPC scattering (μg/m³),mass concentration of particles derived from Lorenz-Mie calculation of OPC scattering (μg/m³)
DateTimeUTC,F1_M11,P_M11,Q1_M11,Q2_M11,T1_M11,T2_M11,T3_M11,T4_M11,T5_M11,U1_M11,ZSPAN_M11,X2_M11,X0_M11,X1_M11
2023-10-04 15:00:00,SystemResetWarning,0832.7,5.00,000.00,029.3,028.0,000.0,037.6,030.9,15.2,0000.0,0002.66,0009.87,0002.05
2023-10-04 15:01:00,SystemResetWarning,0832.7,5.01,000.00,029.3,028.0,000.0,037.6,031.0,15.1,0000.0,0002.64,0010.13,0002.04
2023-10-04 15:02:00,SystemResetWarning,0832.6,5.00,000.00,029.3,028.0,000.0,037.6,031.0,15.1,0000.0,0002.67,0009.92,0002.03
2023-10-04 15:03:00,SystemResetWarning,0832.7,5.00,000.00,029.3,028.1,000.0,037.6,031.0,15.0,0000.0,0002.69,0009.09,0002.03
2023-10-04 15:04:00,SystemResetWarning,0832.7,4.99,000.00,029.3,028.1,000.0,037.6,031.0,14.7,0000.0,0002.72,0008.97,0002.03
2023-10-04 15:05:00,SystemResetWarning,0832.7,4.99,000.00,029.3,028.1,000.0,037.6,031.0,14.7,0000.0,0002.71,0008.88,0002.01
2023-10-04 15:06:00,SystemResetWarning,0832.7,5.00,000.00,029.3,028.1,000.0,037.7,031.0,14.8,0000.0,0002.70,0008.66,0002.01
2023-10-04 15:07:00,SystemResetWarning,0832.7,5.01,000.00,029.3,028.1,000.0,037.7,031.0,14.8,0000.0,0002.71,0008.66,0002.01
2023-10-04 15:08:00,SystemResetWarning,0832.7,5.01,000.00,029.4,028.1,000.0,037.7,031.1,14.7,0000.0,0002.70,0008.62,0002.01
2023-10-04 15:09:00,SystemResetWarning,0832.7,5.00,000.00,029.4,028.1,000.0,037.7,031.1,14.8,0000.0,0002.67,0008.79,0001.99
2023-10-04 15:10:00,SystemResetWarning,0832.6,5.00,000.00,029.4,028.1,000.0,037.7,031.1,14.8,0000.0,0002.68,0008.99,0001.99
2023-10-04 15:11:00,SystemResetWarning,0832.7,4.99,000.00,029.4,028.1,000.0,037.7,031.1,14.8,0000.0,0002.71,0008.54,0001.98
2023-10-04 15:12:00,SystemResetWarning,0832.6,4.99,000.00,029.4,028.2,000.0,037.8,031.1,14.7,0000.0,0002.71,0007.87,0001.99
2023-10-04 15:13:00,SystemResetWarning,0832.6,5.00,000.00,029.4,028.2,000.0,037.8,031.1,14.7,0000.0,0002.74,0008.15,0002.00
2023-10-04 15:14:00,SystemResetWarning,0832.6,5.00,000.00,029.5,028.2,000.0,037.8,031.1,14.6,0000.0,0002.76,0007.54,0002.01
2023-10-04 15:15:00,SystemResetWarning,0832.5,5.00,000.00,029.5,028.2,000.0,037.8,031.1,14.8,0000.0,0002.75,0007.39,0002.01
2023-10-04 15:16:00,SystemResetWarning,0832.5,5.01,000.00,029.5,028.2,000.0,037.8,031.2,14.8,0000.0,0002.79,0007.33,0002.01
2023-10-04 15:17:00,SystemResetWarning,0832.5,4.99,000.00,029.5,027.9,000.0,037.8,031.2,14.9,0000.0,0002.83,0007.33,0002.02
2023-10-04 15:18:00,SystemResetWarning,0832.5,5.00,000.00,029.4,026.1,000.0,037.8,031.0,14.7,0000.0,0002.85,0007.39,0002.02
2023-10-04 15:19:00,SystemResetWarning,0832.5,5.00,000.00,029.3,024.9,000.0,037.7,030.8,14.7,0000.0,0002.86,0007.63,0002.01
2023-10-04 15:20:00,SystemResetWarning,0832.5,5.00,000.00,029.2,025.0,000.0,037.7,030.6,14.8,0000.0,0002.90,0007.67,0002.01
2023-10-04 15:21:00,SystemResetWarning,0832.5,5.01,000.00,029.1,025.3,000.0,037.7,030.4,14.9,0000.0,0002.94,0007.69,0002.02
2023-10-04 15:22:00,SystemResetWarning,0832.5,5.00,000.00,029.1,025.6,000.0,037.6,030.4,15.0,0000.0,0002.95,0008.16,0002.02
2023-10-04 15:23:00,SystemResetWarning,0832.5,5.00,000.00,029.0,026.0,000.0,037.6,030.4,15.0,0000.0,0003.03,0008.99,0002.04
2023-10-04 15:24:00,SystemResetWarning,0832.5,5.00,000.00,029.0,026.3,000.0,037.6,030.4,15.2,0000.0,0003.05,0009.32,0002.05
2023-10-04 15:25:00,SystemResetWarning,0832.5,5.00,000.00,029.0,026.6,000.0,037.6,030.5,15.5,0000.0,0003.00,0009.14,0002.04
2023-10-04 15:26:00,SystemResetWarning,0832.5,4.99,000.00,029.0,026.8,000.0,037.5,030.5,15.5,0000.0,0003.01,0009.02,0002.05
2023-10-04 15:27:00,SystemResetWarning,0832.5,5.00,000.00,029.0,027.0,000.0,037.5,030.6,15.3,0000.0,0003.05,0009.20,0002.05
2023-10-04 15:28:00,SystemResetWarning,0832.6,5.01,000.00,029.0,027.2,000.0,037.5,030.6,15.3,0000.0,0003.50,0011.58,0002.13
2023-10-04 15:29:00,SystemResetWarning,0832.5,5.00,000.00,029.0,027.3,000.0,037.5,030.6,15.3,0000.0,0003.95,0014.69,0002.21
2023-10-04 15:30:00,SystemResetWarning,0832.6,5.00,000.00,029.0,027.4,000.0,037.5,030.7,15.3,0000.0,0004.06,0015.90,0002.23
2023-10-04 15:31:00,SystemResetWarning,0832.6,5.00,000.00,029.0,027.5,000.0,037.5,030.7,15.3,0000.0,0004.13,0015.99,0002.25
2023-10-04 15:32:00,SystemResetWarning,0832.5,5.00,000.00,029.0,027.6,000.0,037.4,030.7,15.4,0000.0,0004.20,0016.59,0002.25
2023-10-04 15:33:00,SystemResetWarning,0832.6,5.00,000.00,029.0,027.6,000.0,037.4,030.7,15.3,0000.0,0004.30,0017.05,0002.25
2023-10-04 15:34:00,SystemResetWarning,0832.5,5.00,000.00,029.0,027.7,000.0,037.4,030.7,15.4,0000.0,0004.31,0016.40,0002.23
2023-10-04 15:35:00,SystemResetWarning,0832.5,5.00,000.00,029.1,027.7,000.0,037.5,030.7,15.5,0000.0,0004.29,0015.92,0002.22
2023-10-04 15:36:00,SystemResetWarning,0832.5,5.00,000.00,029.1,027.7,000.0,037.5,030.7,15.3,0000.0,0004.28,0015.42,0002.20
2023-10-04 15:37:00,SystemResetWarning,0832.5,5.00,000.00,029.0,027.7,000.0,037.5,030.7,15.4,0000.0,0004.29,0015.47,0002.17
2023-10-04 15:38:00,SystemResetWarning,0832.5,5.00,000.00,029.1,027.7,000.0,037.5,030.8,15.8,0000.0,0004.26,0015.37,0002.14
2023-10-04 15:39:00,SystemResetWarning,0832.5,5.00,000.00,029.1,027.8,000.0,037.5,030.8,15.8,0000.0,0003.94,0013.74,0002.07
2023-10-04 15:40:00,SystemResetWarning,0832.5,5.00,000.00,029.1,027.8,000.0,037.5,030.8,15.6,0000.0,0003.36,0010.19,0001.94
2023-10-04 15:41:00,SystemResetWarning,0832.5,5.01,000.00,029.1,027.8,000.0,037.5,030.8,15.7,0000.0,0003.19,0008.42,0001.85
2023-10-04 15:42:00,SystemResetWarning,0832.5,5.00,000.00,029.2,027.9,000.0,037.5,030.9,15.6,0000.0,0003.05,0008.09,0001.78
2023-10-04 15:43:00,SystemResetWarning,0832.5,5.00,000.00,029.2,027.9,000.0,037.5,030.9,15.4,0000.0,0002.92,0007.34,0001.74
2023-10-04 15:44:00,SystemResetWarning,0832.5,5.00,000.00,029.2,027.9,000.0,037.6,030.9,15.3,0000.0,0002.67,0006.14,0001.68
2023-10-04 15:45:00,SystemResetWarning,0832.5,5.00,000.00,029.2,028.0,000.0,037.6,030.9,15.4,0000.0,0002.45,0005.11,0001.62
2023-10-04 15:46:00,SystemResetWarning,0832.5,4.99,000.00,029.2,028.0,000.0,037.6,030.9,15.2,0000.0,0002.38,0004.78,0001.57
2023-10-04 15:47:00,SystemResetWarning,0832.6,4.99,000.00,029.3,027.4,000.0,037.6,031.0,15.2,0000.0,0002.37,0004.79,0001.54
2023-10-04 15:48:00,SystemResetWarning,0832.5,5.00,000.00,029.2,025.5,000.0,037.5,030.7,15.2,0000.0,0002.34,0006.08,0001.54
2023-10-04 15:49:00,SystemResetWarning,0832.5,5.01,000.00,029.1,024.7,000.0,037.4,030.5,15.4,0000.0,0002.35,0006.47,0001.55
2023-10-04 15:50:00,SystemResetWarning,0832.5,5.02,000.00,029.0,024.8,000.0,037.4,030.4,15.5,0000.0,0002.34,0006.46,0001.54
2023-10-04 15:51:00,SystemResetWarning,0832.5,5.00,000.00,028.9,025.1,000.0,037.4,030.2,15.6,0000.0,0002.35,0007.04,0001.54
2023-10-04 15:52:00,SystemResetWarning,0832.5,5.00,000.00,028.8,025.5,000.0,037.4,030.2,15.7,0000.0,0002.36,0007.26,0001.56
2023-10-04 15:53:00,SystemResetWarning,0832.5,5.00,000.00,028.8,025.8,000.0,037.4,030.2,15.7,0000.0,0002.36,0007.32,0001.57
2023-10-04 15:54:00,SystemResetWarning,0832.5,5.00,000.00,028.8,026.2,000.0,037.4,030.2,15.8,0000.0,0002.35,0007.25,0001.59
2023-10-04 15:55:00,SystemResetWarning,0832.5,4.99,000.00,028.7,026.4,000.0,037.4,030.3,15.9,0000.0,0002.35,0007.06,0001.60
2023-10-04 15:56:00,SystemResetWarning,0832.4,5.00,000.00,028.8,026.7,000.0,037.3,030.3,15.7,0000.0,0002.36,0007.17,0001.62
2023-10-04 15:57:00,SystemResetWarning,0832.4,5.01,000.00,028.8,026.8,000.0,037.3,030.3,15.7,0000.0,0002.35,0007.59,0001.62
2023-10-04 15:58:00,SystemResetWarning,0832.4,5.00,000.00,028.8,027.0,000.0,037.3,030.4,15.9,0000.0,0002.33,0007.71,0001.61
2023-10-04 15:59:00,SystemResetWarning,0832.4,4.99,000.00,028.8,027.1,000.0,037.3,030.4,15.9,0000.0,0002.30,0007.00,0001.60
